Time,TemperatureF,DewpointF,PressureIn,WindDirection,WindDirectionDegrees,WindSpeedMPH,WindSpeedGustMPH,Humidity,HourlyPrecipIn,Conditions,Clouds,dailyrainin,SolarRadiationWatts/m^2,SoftwareType,DateUTC
2013-10-18 00:13:00,41.8,40.0,29.90,South,190,2.0,-999.0,93,-99.99,,,0.00,0,weatherlink.com 1.10,2013-10-18 04:13:00,
2013-10-18 00:28:00,41.8,40.0,29.90,South,190,2.0,-999.0,93,-99.99,,,0.00,0,weatherlink.com 1.10,2013-10-18 04:28:00,
2013-10-18 00:43:00,41.8,40.0,29.90,South,190,2.0,-999.0,93,-99.99,,,0.00,0,weatherlink.com 1.10,2013-10-18 04:43:00,
2013-10-18 00:58:00,41.6,40.0,29.90,South,190,0.0,-999.0,93,-99.99,,,0.00,0,weatherlink.com 1.10,2013-10-18 04:58:00,
2013-10-18 01:13:00,41.4,40.0,29.90,South,190,0.0,-999.0,93,-99.99,,,0.00,0,weatherlink.com 1.10,2013-10-18 05:13:00,
2013-10-18 01:28:00,41.3,40.0,29.90,South,190,0.0,-999.0,93,-99.99,,,0.00,0,weatherlink.com 1.10,2013-10-18 05:28:00,
2013-10-18 01:43:00,41.4,39.0,29.90,South,190,0.0,-999.0,92,-99.99,,,0.00,0,weatherlink.com 1.10,2013-10-18 05:43:00,
2013-10-18 01:58:00,41.3,39.0,29.90,South,190,0.0,-999.0,92,-99.99,,,0.00,0,weatherlink.com 1.10,2013-10-18 05:58:00,
2013-10-18 02:13:00,41.1,39.0,29.90,South,190,0.0,-999.0,92,-99.99,,,0.00,0,weatherlink.com 1.10,2013-10-18 06:13:00,
2013-10-18 02:28:00,41.1,39.0,29.90,South,190,0.0,-999.0,92,-99.99,,,0.00,0,weatherlink.com 1.10,2013-10-18 06:28:00,
2013-10-18 02:43:00,40.6,39.0,29.90,South,190,3.0,-999.0,92,-99.99,,,0.00,0,weatherlink.com 1.10,2013-10-18 06:43:00,
2013-10-18 02:58:00,40.6,39.0,29.90,South,191,3.0,-999.0,92,-99.99,,,0.00,0,weatherlink.com 1.10,2013-10-18 06:58:00,
2013-10-18 03:13:00,40.6,39.0,29.90,SSW,195,4.0,-999.0,92,-99.99,,,0.00,0,weatherlink.com 1.10,2013-10-18 07:13:00,
2013-10-18 03:28:00,40.9,39.0,29.90,South,190,4.0,-999.0,93,-99.99,,,0.00,0,weatherlink.com 1.10,2013-10-18 07:28:00,
2013-10-18 03:43:00,41.1,39.0,29.89,South,190,3.0,-999.0,93,-99.99,,,0.00,0,weatherlink.com 1.10,2013-10-18 07:43:00,
2013-10-18 03:58:00,40.8,39.0,29.90,South,190,3.0,-999.0,92,-99.99,,,0.00,0,weatherlink.com 1.10,2013-10-18 07:58:00,
2013-10-18 04:13:00,40.8,39.0,29.89,SSW,201,3.0,-999.0,93,-99.99,,,0.00,0,weatherlink.com 1.10,2013-10-18 08:13:00,
2013-10-18 04:28:00,40.8,39.0,29.89,South,187,4.0,-999.0,93,-99.99,,,0.00,0,weatherlink.com 1.10,2013-10-18 08:28:00,
2013-10-18 04:43:00,40.9,39.0,29.89,South,187,3.0,-999.0,93,-99.99,,,0.00,0,weatherlink.com 1.10,2013-10-18 08:43:00,
2013-10-18 04:58:00,41.4,40.0,29.89,South,190,4.0,-999.0,93,-99.99,,,0.00,0,weatherlink.com 1.10,2013-10-18 08:58:00,
2013-10-18 05:13:00,41.5,40.0,29.89,SSW,193,5.0,-999.0,93,-99.99,,,0.00,0,weatherlink.com 1.10,2013-10-18 09:13:00,
2013-10-18 05:28:00,41.6,40.0,29.89,South,191,5.0,-999.0,93,-99.99,,,0.00,0,weatherlink.com 1.10,2013-10-18 09:28:00,
2013-10-18 05:43:00,41.8,40.0,29.90,South,190,4.0,-999.0,93,-99.99,,,0.00,0,weatherlink.com 1.10,2013-10-18 09:43:00,
2013-10-18 05:58:00,41.4,40.0,29.90,South,185,4.0,-999.0,93,-99.99,,,0.00,0,weatherlink.com 1.10,2013-10-18 09:58:00,
2013-10-18 06:13:00,41.1,39.0,29.90,South,183,5.0,-999.0,93,-99.99,,,0.00,0,weatherlink.com 1.10,2013-10-18 10:13:00,
2013-10-18 06:28:00,41.1,39.0,29.90,South,175,4.0,-999.0,93,-99.99,,,0.00,0,weatherlink.com 1.10,2013-10-18 10:28:00,
2013-10-18 06:43:00,41.0,39.0,29.90,South,178,3.0,-999.0,94,-99.99,,,0.00,0,weatherlink.com 1.10,2013-10-18 10:43:00,
2013-10-18 06:58:00,41.2,39.0,29.90,South,185,3.0,-999.0,93,-99.99,,,0.00,0,weatherlink.com 1.10,2013-10-18 10:58:00,
2013-10-18 07:13:00,41.3,40.0,29.90,South,189,3.0,-999.0,93,-99.99,,,0.00,0,weatherlink.com 1.10,2013-10-18 11:13:00,
2013-10-18 07:28:00,41.5,40.0,29.90,SSW,192,4.0,-999.0,93,-99.99,,,0.00,0,weatherlink.com 1.10,2013-10-18 11:28:00,
2013-10-18 07:43:00,41.5,40.0,29.90,South,190,3.0,-999.0,93,-99.99,,,0.00,0,weatherlink.com 1.10,2013-10-18 11:43:00,
2013-10-18 07:58:00,41.4,40.0,29.91,South,190,4.0,-999.0,93,-99.99,,,0.00,0,weatherlink.com 1.10,2013-10-18 11:58:00,
2013-10-18 08:13:00,41.5,40.0,29.91,South,187,4.0,-999.0,93,-99.99,,,0.00,12,weatherlink.com 1.10,2013-10-18 12:13:00,
2013-10-18 08:28:00,41.8,40.0,29.91,South,189,4.0,-999.0,94,-99.99,,,0.00,19,weatherlink.com 1.10,2013-10-18 12:28:00,
2013-10-18 08:44:00,42.9,41.0,29.92,South,189,4.0,-999.0,94,-99.99,,,0.00,26,weatherlink.com 1.10,2013-10-18 12:44:00,
2013-10-18 08:59:00,44.0,42.0,29.92,SSW,193,5.0,-999.0,94,-99.99,,,0.00,37,weatherlink.com 1.10,2013-10-18 12:59:00,
2013-10-18 09:14:00,45.2,43.0,29.92,South,175,5.0,-999.0,93,-99.99,,,0.01,35,weatherlink.com 1.10,2013-10-18 13:14:00,
2013-10-18 09:29:00,46.8,44.0,29.93,SSW,192,9.0,-999.0,91,-99.99,,,0.01,40,weatherlink.com 1.10,2013-10-18 13:29:00,
2013-10-18 09:44:00,48.2,45.0,29.93,SSW,192,5.0,-999.0,89,-99.99,,,0.01,56,weatherlink.com 1.10,2013-10-18 13:44:00,
2013-10-18 09:59:00,49.4,45.0,29.93,SSW,212,8.0,-999.0,86,-99.99,,,0.01,53,weatherlink.com 1.10,2013-10-18 13:59:00,
2013-10-18 10:29:00,51.2,46.0,29.93,SSW,202,12.0,-999.0,82,-99.99,,,0.01,60,weatherlink.com 1.10,2013-10-18 14:29:00,
2013-10-18 10:44:00,52.2,47.0,29.94,SSE,166,8.0,-999.0,81,-99.99,,,0.01,366,weatherlink.com 1.10,2013-10-18 14:44:00,
2013-10-18 10:59:00,53.3,47.0,29.94,SSW,192,7.0,-999.0,79,-99.99,,,0.01,401,weatherlink.com 1.10,2013-10-18 14:59:00,
2013-10-18 11:14:00,53.9,47.0,29.94,SW,224,11.0,-999.0,76,-99.99,,,0.01,432,weatherlink.com 1.10,2013-10-18 15:14:00,
2013-10-18 11:29:00,54.7,47.0,29.94,South,188,9.0,-999.0,76,-99.99,,,0.01,466,weatherlink.com 1.10,2013-10-18 15:29:00,
2013-10-18 11:44:00,55.4,47.0,29.94,SW,216,10.0,-999.0,74,-99.99,,,0.01,496,weatherlink.com 1.10,2013-10-18 15:44:00,
2013-10-18 11:59:00,56.6,47.0,29.93,SW,216,14.0,-999.0,71,-99.99,,,0.01,515,weatherlink.com 1.10,2013-10-18 15:59:00,
2013-10-18 12:14:00,57.3,48.0,29.93,SW,228,11.0,-999.0,70,-99.99,,,0.01,541,weatherlink.com 1.10,2013-10-18 16:14:00,
2013-10-18 12:29:00,58.2,47.0,29.93,SW,224,11.0,-999.0,67,-99.99,,,0.01,566,weatherlink.com 1.10,2013-10-18 16:29:00,
2013-10-18 12:44:00,59.3,46.0,29.93,SW,226,10.0,-999.0,62,-99.99,,,0.01,578,weatherlink.com 1.10,2013-10-18 16:44:00,
2013-10-18 12:59:00,60.0,46.0,29.92,SSW,195,6.0,-999.0,61,-99.99,,,0.01,592,weatherlink.com 1.10,2013-10-18 16:59:00,
2013-10-18 13:14:00,60.3,46.0,29.92,SW,232,8.0,-999.0,59,-99.99,,,0.01,601,weatherlink.com 1.10,2013-10-18 17:14:00,
2013-10-18 13:29:00,61.2,47.0,29.91,SW,214,10.0,-999.0,59,-99.99,,,0.01,603,weatherlink.com 1.10,2013-10-18 17:29:00,
2013-10-18 13:44:00,61.9,46.0,29.91,WNW,284,12.0,-999.0,56,-99.99,,,0.01,601,weatherlink.com 1.10,2013-10-18 17:44:00,
2013-10-18 13:59:00,61.6,45.0,29.90,SW,233,6.0,-999.0,54,-99.99,,,0.01,603,weatherlink.com 1.10,2013-10-18 17:59:00,
2013-10-18 14:14:00,61.9,44.0,29.90,SW,235,9.0,-999.0,52,-99.99,,,0.01,617,weatherlink.com 1.10,2013-10-18 18:14:00,
2013-10-18 14:29:00,62.2,44.0,29.90,WSW,249,7.0,-999.0,51,-99.99,,,0.01,612,weatherlink.com 1.10,2013-10-18 18:29:00,
2013-10-18 14:44:00,62.6,45.0,29.89,South,172,10.0,-999.0,52,-99.99,,,0.01,506,weatherlink.com 1.10,2013-10-18 18:44:00,
2013-10-18 14:59:00,62.8,44.0,29.89,SW,221,10.0,-999.0,51,-99.99,,,0.01,684,weatherlink.com 1.10,2013-10-18 18:59:00,
2013-10-18 15:14:00,61.9,45.0,29.89,SSW,204,5.0,-999.0,54,-99.99,,,0.01,216,weatherlink.com 1.10,2013-10-18 19:14:00,
2013-10-18 15:29:00,61.9,45.0,29.89,West,271,7.0,-999.0,55,-99.99,,,0.01,626,weatherlink.com 1.10,2013-10-18 19:29:00,
2013-10-18 15:44:00,61.5,44.0,29.89,SSW,206,6.0,-999.0,54,-99.99,,,0.01,134,weatherlink.com 1.10,2013-10-18 19:44:00,
2013-10-18 15:59:00,61.0,46.0,29.89,SW,227,13.0,-999.0,58,-99.99,,,0.01,209,weatherlink.com 1.10,2013-10-18 19:59:00,
2013-10-18 16:14:00,61.2,45.0,29.89,WSW,247,8.0,-999.0,56,-99.99,,,0.01,432,weatherlink.com 1.10,2013-10-18 20:14:00,
2013-10-18 16:29:00,60.1,45.0,29.89,WSW,253,9.0,-999.0,57,-99.99,,,0.01,155,weatherlink.com 1.10,2013-10-18 20:29:00,
2013-10-18 16:44:00,59.2,46.0,29.89,WSW,247,6.0,-999.0,61,-99.99,,,0.01,362,weatherlink.com 1.10,2013-10-18 20:44:00,
2013-10-18 16:59:00,57.6,46.0,29.90,West,259,8.0,-999.0,66,-99.99,,,0.01,295,weatherlink.com 1.10,2013-10-18 20:59:00,
2013-10-18 17:14:00,55.1,45.0,29.91,NW,319,7.0,-999.0,70,-99.99,,,0.01,248,weatherlink.com 1.10,2013-10-18 21:14:00,
2013-10-18 17:29:00,53.3,45.0,29.91,West,272,7.0,-999.0,73,-99.99,,,0.01,200,weatherlink.com 1.10,2013-10-18 21:29:00,
2013-10-18 17:44:00,52.6,45.0,29.91,WSW,242,3.0,-999.0,74,-99.99,,,0.01,156,weatherlink.com 1.10,2013-10-18 21:44:00,
2013-10-18 17:59:00,52.2,45.0,29.92,NW,316,7.0,-999.0,75,-99.99,,,0.01,113,weatherlink.com 1.10,2013-10-18 21:59:00,
2013-10-18 18:14:00,51.4,44.0,29.92,WNW,289,6.0,-999.0,75,-99.99,,,0.01,70,weatherlink.com 1.10,2013-10-18 22:14:00,
2013-10-18 18:29:00,50.9,44.0,29.92,WSW,256,3.0,-999.0,76,-99.99,,,0.01,28,weatherlink.com 1.10,2013-10-18 22:29:00,
2013-10-18 18:44:00,50.3,43.0,29.93,West,278,11.0,-999.0,76,-99.99,,,0.01,16,weatherlink.com 1.10,2013-10-18 22:44:00,
2013-10-18 18:59:00,49.5,43.0,29.94,West,274,7.0,-999.0,77,-99.99,,,0.01,0,weatherlink.com 1.10,2013-10-18 22:59:00,
2013-10-18 19:14:00,48.8,43.0,29.94,WNW,283,6.0,-999.0,79,-99.99,,,0.01,0,weatherlink.com 1.10,2013-10-18 23:14:00,
2013-10-18 19:29:00,48.2,42.0,29.95,West,274,4.0,-999.0,80,-99.99,,,0.01,0,weatherlink.com 1.10,2013-10-18 23:29:00,
2013-10-18 19:44:00,47.6,42.0,29.96,West,276,6.0,-999.0,81,-99.99,,,0.01,0,weatherlink.com 1.10,2013-10-18 23:44:00,
2013-10-18 19:59:00,47.2,41.0,29.96,West,272,3.0,-999.0,79,-99.99,,,0.01,0,weatherlink.com 1.10,2013-10-18 23:59:00,
2013-10-18 20:14:00,46.9,40.0,29.96,SW,224,7.0,-999.0,78,-99.99,,,0.01,0,weatherlink.com 1.10,2013-10-19 00:14:00,
2013-10-18 20:29:00,46.9,40.0,29.97,West,260,9.0,-999.0,77,-99.99,,,0.01,0,weatherlink.com 1.10,2013-10-19 00:29:00,
2013-10-18 20:44:00,46.7,40.0,29.96,NW,307,10.0,-999.0,77,-99.99,,,0.01,0,weatherlink.com 1.10,2013-10-19 00:44:00,
2013-10-18 20:59:00,46.5,40.0,29.96,West,281,6.0,-999.0,77,-99.99,,,0.01,0,weatherlink.com 1.10,2013-10-19 00:59:00,
2013-10-18 21:14:00,45.8,39.0,29.96,WSW,253,1.0,-999.0,78,-99.99,,,0.01,0,weatherlink.com 1.10,2013-10-19 01:14:00,
2013-10-18 21:29:00,45.3,40.0,29.96,WSW,257,4.0,-999.0,80,-99.99,,,0.01,0,weatherlink.com 1.10,2013-10-19 01:29:00,
2013-10-18 21:44:00,44.5,39.0,29.96,WSW,244,0.0,-999.0,81,-99.99,,,0.01,0,weatherlink.com 1.10,2013-10-19 01:44:00,
2013-10-18 21:59:00,43.8,39.0,29.96,WSW,244,0.0,-999.0,82,-99.99,,,0.01,0,weatherlink.com 1.10,2013-10-19 01:59:00,
2013-10-18 22:14:00,43.1,39.0,29.96,WSW,244,0.0,-999.0,84,-99.99,,,0.01,0,weatherlink.com 1.10,2013-10-19 02:14:00,
2013-10-18 22:29:00,42.3,38.0,29.97,WSW,244,0.0,-999.0,86,-99.99,,,0.01,0,weatherlink.com 1.10,2013-10-19 02:29:00,
2013-10-18 22:44:00,42.4,39.0,29.96,WSW,244,0.0,-999.0,87,-99.99,,,0.01,0,weatherlink.com 1.10,2013-10-19 02:44:00,
2013-10-18 22:59:00,42.7,39.0,29.95,WSW,244,0.0,-999.0,87,-99.99,,,0.01,0,weatherlink.com 1.10,2013-10-19 02:59:00,
2013-10-18 23:14:00,42.5,39.0,29.96,WSW,244,0.0,-999.0,88,-99.99,,,0.01,0,weatherlink.com 1.10,2013-10-19 03:14:00,
2013-10-18 23:29:00,42.2,39.0,29.95,WSW,244,0.0,-999.0,89,-99.99,,,0.01,0,weatherlink.com 1.10,2013-10-19 03:29:00,
2013-10-18 23:44:00,42.0,39.0,29.95,WSW,244,0.0,-999.0,90,-99.99,,,0.01,0,weatherlink.com 1.10,2013-10-19 03:44:00,
2013-10-18 23:59:00,42.3,40.0,29.94,WSW,244,0.0,-999.0,90,-99.99,,,0.01,0,weatherlink.com 1.10,2013-10-19 03:59:00,